DW8455 Weather Reports


time (UTC)temp
C
wind
direction
speed
KPH
gust
KPH
rain 1hr
cm
rain 24hr
cm
rain mn
cm
humidity
%
barometer
mb
20260504174037 11 338 24.1 30.6 0.00 0.00 0.00 48 1018.6
20260504173017 11 338 25.7 35.4 0.00 0.00 0.00 46 1018.5
20260504172016 11 338 24.1 32.2 0.00 0.00 0.00 48 1018.5
20260504171016 11 338 27.4 37.0 0.00 0.00 0.00 48 1018.9
20260504151016 8 315 6.4 12.9 0.00 0.00 0.00 52 1019.5
20260504141017 7 158 6.4 12.9 0.00 0.00 0.00 57 1021.2
20260504081016 7 135 4.8 9.7 0.00 0.00 0.00 56 1017.7
20260504050017 11 135 4.8 8.0 0.00 0.00 0.00 44 1016.5
20260504045018 11 158 6.4 9.7 0.00 0.00 0.00 43 1016.5
20260504044017 11 158 6.4 9.7 0.00 0.00 0.00 42 1016.0
20260504043038 11 113 3.2 4.8 0.00 0.00 0.00 43 1016.1
20260504042017 11 68 3.2 11.3 0.00 0.00 0.00 42 1015.9
20260504041018 11 158 3.2 6.4 0.00 0.00 0.00 42 1015.2
20260504040017 11 135 1.6 3.2 0.00 0.00 0.00 43 1015.0
20260504035017 11 113 6.4 11.3 0.00 0.00 0.00 42 1015.1
20260504034017 12 68 8.0 12.9 0.00 0.00 0.00 42 1014.6
20260504033017 12 23 8.0 12.9 0.00 0.00 0.00 40 1014.8
20260504032017 12 23 6.4 9.7 0.00 0.00 0.00 39 1014.6
20260504031037 13 45 1.6 6.4 0.00 0.00 0.00 40 1014.2
20260504030017 13 45 1.6 6.4 0.00 0.00 0.00 39 1014.1
20260504025017 13 90 11.3 14.5 0.00 0.00 0.00 41 1014.0
20260504024017 13 90 12.9 14.5 0.00 0.00 0.00 40 1013.2
20260504023017 15 90 11.3 12.9 0.00 0.00 0.00 37 1013.6
20260504022017 17 338 4.8 6.4 0.00 0.00 0.00 33 1014.3
20260504021017 18 338 3.2 4.8 0.00 0.00 0.00 29 1014.3
20260504020017 20 338 3.2 4.8 0.00 0.00 0.00 27 1014.7
20260504015017 20 338 3.2 4.8 0.00 0.00 0.00 24 1015.2
20260504014018 20 338 8.0 9.7 0.00 0.00 0.00 23 1015.5
20260504013017 20 315 8.0 14.5 0.00 0.00 0.00 27 1015.6
20260504012017 21 338 11.3 16.1 0.00 0.00 0.00 23 1015.7
20260504011017 21 338 9.7 14.5 0.00 0.00 0.00 23 1015.8
20260504010018 21 315 14.5 20.9 0.00 0.00 0.00 23 1015.9
20260504005037 21 315 17.7 27.4 0.00 0.00 0.00 22 1016.0
20260504004018 21 338 17.7 25.7 0.00 0.00 0.00 22 1015.7
20260504003017 21 315 17.7 29.0 0.00 0.00 0.00 22 1016.1
20260504002017 21 338 17.7 25.7 0.00 0.00 0.00 21 1016.2
20260504001017 21 315 20.9 29.0 0.00 0.00 0.00 22 1016.2
20260504000037 21 293 20.9 30.6 0.00 0.00 0.00 23 1016.4
20260503235037 21 293 16.1 24.1 0.00 0.00 0.00 25 1016.5
20260503234017 22 293 24.1 33.8 0.00 0.00 0.00 23 1016.5
20260503233017 21 293 22.5 30.6 0.00 0.00 0.00 22 1016.5
20260503232017 22 315 20.9 29.0 0.00 0.00 0.00 25 1016.7
20260503231016 22 315 22.5 33.8 0.00 0.00 0.00 22 1017.1
20260503230017 22 315 16.1 24.1 0.00 0.00 0.00 23 1017.3
20260503225017 22 293 14.5 24.1 0.00 0.00 0.00 24 1017.4
20260503224017 22 293 16.1 25.7 0.00 0.00 0.00 24 1017.4
20260503223057 21 315 25.7 37.0 0.00 0.00 0.00 26 1017.6
20260503222017 21 293 25.7 38.6 0.00 0.00 0.00 26 1017.8
20260503221037 21 315 14.5 24.1 0.00 0.00 0.00 26 1018.3
20260503220017 21 315 20.9 35.4 0.00 0.00 0.00 27 1018.5
20260503215017 21 315 16.1 29.0 0.00 0.00 0.00 28 1018.8
20260503214017 21 315 20.9 37.0 0.00 0.00 0.00 27 1018.8
20260503213017 21 315 17.7 33.8 0.00 0.00 0.00 26 1019.1
20260503212017 21 270 12.9 27.4 0.00 0.00 0.00 27 1018.9
20260503211016 21 315 11.3 27.4 0.00 0.00 0.00 27 1019.1
20260503210017 21 338 9.7 22.5 0.00 0.00 0.00 26 1019.2
20260503205017 21 0 12.9 25.7 0.00 0.00 0.00 27 1019.4
20260503204016 21 23 12.9 19.3 0.00 0.00 0.00 27 1020.2
20260503203017 21 338 17.7 35.4 0.00 0.00 0.00 26 1020.3
20260503202017 20 0 20.9 29.0 0.00 0.00 0.00 27 1020.1
20260503201017 20 23 12.9 27.4 0.00 0.00 0.00 27 1020.2
20260503200016 20 0 20.9 30.6 0.00 0.00 0.00 28 1020.4
20260503195017 20 0 20.9 32.2 0.00 0.00 0.00 28 1020.5
20260503194017 19 338 20.9 30.6 0.00 0.00 0.00 27 1020.2
20260503193017 20 0 24.1 33.8 0.00 0.00 0.00 27 1020.2
20260503192017 18 338 14.5 27.4 0.00 0.00 0.00 29 1020.1
20260503191016 19 90 6.4 14.5 0.00 0.00 0.00 27 1020.5
20260503190016 20 68 11.3 17.7 0.00 0.00 0.00 31 1021.1
20260503185017 19 0 6.4 19.3 0.00 0.00 0.00 33 1020.9
20260503184016 19 23 9.7 27.4 0.00 0.00 0.00 30 1021.3
20260503183017 20 0 11.3 22.5 0.00 0.00 0.00 28 1021.7
20260503182016 20 45 8.0 16.1 0.00 0.00 0.00 33 1022.0
20260503181017 20 90 8.0 16.1 0.00 0.00 0.00 33 1022.1
20260503180016 18 270 3.2 6.4 0.00 0.00 0.00 38 1022.0
20260503175037 18 23 4.8 8.0 0.00 0.00 0.00 39 1021.8